WA5KWK Weather Reports


Display with metric or nautical units.
time (UTC)temp
F
wind
direction
speed
MPH
gust
MPH
rain 1hr
in
rain 24hr
in
rain mn
in
humidity
%
barometer
mb
20260507185505 72 220 3.0 8.0 0.00 0.00 0.00 68 1018.9
20260507185005 72 221 5.0 8.0 0.00 0.00 0.00 68 1019.1
20260507184506 72 207 4.0 6.0 0.00 0.00 0.00 67 1019.2
20260507184006 71 215 4.0 7.0 0.00 0.00 0.00 68 1019.2
20260507183505 71 207 1.0 7.0 0.00 0.00 0.00 68 1019.2
20260507183005 71 192 3.0 8.0 0.00 0.00 0.00 68 1019.3
20260507182006 71 209 3.0 9.0 0.00 0.00 0.00 67 1019.2
20260507181505 71 221 2.0 6.0 0.00 0.00 0.00 66 1019.1
20260507180505 70 218 4.0 7.0 0.00 0.00 0.00 67 1019.3
20260507180005 70 221 0.0 3.0 0.00 0.00 0.00 66 1019.1
20260507175505 70 221 2.0 6.0 0.00 0.00 0.00 66 1019.0
20260507175005 70 242 2.0 5.0 0.00 0.00 0.00 66 1019.1
20260507174506 70 179 2.0 7.0 0.00 0.00 0.00 66 1019.1
20260507174005 70 226 3.0 6.0 0.00 0.00 0.00 69 1018.9
20260507173506 69 251 2.0 5.0 0.00 0.00 0.00 70 1019.0
20260507173006 69 229 3.0 6.0 0.00 0.00 0.00 69 1019.0
20260507171005 68 125 2.0 6.0 0.00 0.00 0.00 70 1019.1
20260507170506 68 177 3.0 8.0 0.00 0.00 0.00 70 1019.2
20260507170006 68 218 3.0 5.0 0.00 0.00 0.00 70 1019.1
20260507165506 67 213 2.0 5.0 0.00 0.00 0.00 70 1019.2
20260507164505 67 214 3.0 5.0 0.00 0.00 0.00 70 1019.3
20260507164006 68 236 2.0 3.0 0.00 0.00 0.00 71 1019.2
20260507163006 66 237 1.0 3.0 0.00 0.00 0.00 75 1019.3
20260507162506 66 237 0.0 2.0 0.00 0.00 0.00 73 1019.4
20260507162005 66 237 2.0 5.0 0.00 0.00 0.00 72 1019.3
20260507161509 66 237 2.0 3.0 0.00 0.00 0.00 73 1019.2
20260507155505 66 273 0.0 2.0 0.00 0.00 0.00 72 1019.2
20260507155006 66 273 1.0 3.0 0.00 0.00 0.00 71 1019.3
20260507154506 66 273 0.0 0.0 0.00 0.00 0.00 71 1019.3
20260507154007 66 273 1.0 2.0 0.00 0.00 0.00 72 1019.4
20260507153506 66 273 0.0 1.0 0.00 0.00 0.00 73 1019.4
20260507153006 66 273 0.0 2.0 0.00 0.00 0.00 73 1019.2
20260507152506 65 273 0.0 0.0 0.00 0.00 0.00 73 1019.2
20260507152006 65 273 0.0 0.0 0.00 0.00 0.00 76 1019.2
20260507151506 64 273 0.0 0.0 0.00 0.00 0.00 78 1019.1
20260507151005 63 273 0.0 0.0 0.00 0.00 0.00 79 1019.2
20260507150506 62 273 0.0 0.0 0.00 0.00 0.00 80 1019.2
20260507150006 62 273 0.0 0.0 0.00 0.00 0.00 82 1019.2
20260507145505 61 273 0.0 0.0 0.00 0.00 0.00 83 1019.0
20260507145006 60 273 0.0 0.0 0.00 0.00 0.00 84 1019.2
20260507144505 60 273 0.0 0.0 0.00 0.00 0.00 85 1019.1
20260507144005 60 273 0.0 0.0 0.00 0.00 0.00 83 1019.1
20260507143506 60 273 0.0 0.0 0.00 0.00 0.00 84 1019.1
20260507143005 60 273 0.0 0.0 0.00 0.00 0.00 84 1019.0
20260507142005 59 273 0.0 0.0 0.00 0.00 0.00 84 1019.1
20260507141505 59 273 0.0 0.0 0.00 0.00 0.00 83 1019.1
20260507141007 59 273 0.0 0.0 0.00 0.00 0.00 84 1019.1
20260507140006 58 273 0.0 0.0 0.00 0.00 0.00 86 1018.8
20260507135506 58 273 0.0 0.0 0.00 0.00 0.00 86 1018.7
20260507135005 58 273 0.0 0.0 0.00 0.00 0.00 86 1018.7
20260507134505 57 273 0.0 0.0 0.00 0.00 0.00 86 1018.6
20260507134009 57 273 0.0 0.0 0.00 0.00 0.00 86 1018.6
20260507132506 57 273 0.0 0.0 0.00 0.00 0.00 87 1018.5
20260507132005 57 273 0.0 0.0 0.00 0.00 0.00 87 1018.4
20260507131005 57 273 0.0 0.0 0.00 0.00 0.00 88 1018.4
20260507130505 57 273 0.0 0.0 0.00 0.00 0.00 88 1018.3
20260507130005 56 273 0.0 0.0 0.00 0.00 0.00 88 1018.4
20260507125005 56 273 0.0 0.0 0.00 0.00 0.00 89 1018.3
20260507124505 56 273 0.0 0.0 0.00 0.00 0.00 89 1018.3
20260507124005 56 273 0.0 0.0 0.00 0.00 0.00 89 1018.3
20260507123505 57 273 0.0 0.0 0.00 0.00 0.00 88 1018.3
20260507123005 57 273 0.0 0.0 0.00 0.00 0.00 89 1018.3
20260507122506 57 273 0.0 0.0 0.00 0.00 0.00 88 1018.3
20260507122005 57 273 0.0 0.0 0.00 0.00 0.00 89 1018.3
20260507121006 57 273 0.0 0.0 0.00 0.00 0.00 89 1018.2
20260507115505 57 273 0.0 0.0 0.00 0.00 0.00 89 1018.4
20260507115005 56 273 0.0 0.0 0.00 0.00 0.00 90 1018.4
20260507114505 56 273 0.0 0.0 0.00 0.00 0.00 90 1018.4
20260507114005 56 273 1.0 2.0 0.00 0.00 0.00 90 1018.4
20260507113506 56 273 1.0 2.0 0.00 0.00 0.00 90 1018.3
20260507112506 56 273 1.0 3.0 0.00 0.00 0.00 90 1018.4
20260507112005 56 273 2.0 3.0 0.00 0.00 0.00 90 1018.4
20260507111005 56 273 1.0 2.0 0.00 0.00 0.00 90 1018.4
20260507110505 56 273 0.0 2.0 0.00 0.00 0.00 91 1018.6
20260507110006 56 273 1.0 2.0 0.00 0.00 0.00 91 1018.4
20260507105505 56 273 1.0 3.0 0.00 0.00 0.00 90 1018.3
20260507105005 56 273 1.0 2.0 0.00 0.00 0.00 90 1018.4
20260507104006 56 273 0.0 0.0 0.00 0.00 0.00 89 1018.3
20260507103505 57 273 0.0 0.0 0.00 0.00 0.00 89 1018.4
20260507102505 57 273 0.0 0.0 0.00 0.00 0.00 88 1018.3
20260507102007 57 273 0.0 0.0 0.00 0.00 0.00 88 1018.3
20260507101509 57 273 0.0 0.0 0.00 0.00 0.00 88 1018.3
20260507101006 57 273 0.0 0.0 0.00 0.00 0.00 88 1018.3
20260507100006 57 273 0.0 0.0 0.00 0.00 0.00 89 1018.4
20260507095505 57 273 0.0 0.0 0.00 0.00 0.00 89 1018.4
20260507094505 57 273 0.0 0.0 0.00 0.00 0.00 90 1018.3
20260507094005 57 273 0.0 0.0 0.00 0.00 0.00 90 1018.4
20260507093505 57 273 0.0 0.0 0.00 0.00 0.00 90 1018.3
20260507093006 57 273 0.0 0.0 0.00 0.00 0.00 89 1018.5
20260507092505 57 273 0.0 0.0 0.00 0.00 0.00 90 1018.6
20260507092005 57 273 0.0 0.0 0.00 0.00 0.00 89 1018.6
20260507091005 57 273 0.0 0.0 0.00 0.00 0.00 89 1018.6
20260507090506 57 273 0.0 0.0 0.00 0.00 0.00 90 1018.7
20260507085005 57 273 0.0 0.0 0.00 0.00 0.00 90 1018.9
20260507084506 57 273 0.0 0.0 0.00 0.00 0.00 91 1018.8
20260507084005 56 273 0.0 0.0 0.00 0.00 0.00 91 1018.9
20260507083506 56 273 0.0 0.0 0.00 0.00 0.00 91 1018.8
20260507083006 56 273 0.0 0.0 0.00 0.00 0.00 91 1018.8
20260507082507 56 273 0.0 0.0 0.00 0.00 0.00 92 1018.8
20260507082005 56 273 0.0 1.0 0.00 0.00 0.00 92 1018.9
20260507081505 56 273 1.0 2.0 0.00 0.00 0.00 92 1018.7
20260507080005 55 273 0.0 3.0 0.00 0.00 0.00 91 1018.8
20260507075505 55 273 0.0 0.0 0.00 0.00 0.00 90 1018.7
20260507074505 56 273 0.0 0.0 0.00 0.00 0.00 91 1018.8
20260507074005 56 273 0.0 0.0 0.00 0.00 0.00 91 1018.8
20260507073505 56 273 0.0 0.0 0.00 0.00 0.00 91 1018.7
20260507073005 56 273 0.0 0.0 0.00 0.00 0.00 91 1018.8
20260507072505 56 273 0.0 0.0 0.00 0.00 0.00 91 1018.8
20260507071505 56 273 0.0 0.0 0.00 0.00 0.00 92 1018.9
20260507071007 55 273 0.0 0.0 0.00 0.00 0.00 92 1018.9
20260507070505 55 273 0.0 0.0 0.00 0.00 0.00 91 1018.9
20260507070010 55 273 0.0 0.0 0.00 0.00 0.00 91 1018.9
20260507065505 55 273 0.0 0.0 0.00 0.00 0.00 91 1018.9
20260507064505 55 273 0.0 0.0 0.00 0.00 0.00 91 1018.9
20260507064005 55 273 0.0 2.0 0.00 0.00 0.00 91 1019.0
20260507063505 55 273 1.0 2.0 0.00 0.00 0.00 91 1019.0
20260507063006 55 273 1.0 2.0 0.00 0.00 0.00 91 1019.0
20260507062505 55 273 0.0 1.0 0.00 0.00 0.00 91 1019.0
20260507062006 55 273 2.0 3.0 0.00 0.00 0.00 90 1019.0
20260507061005 55 273 0.0 0.0 0.00 0.00 0.00 90 1019.1
20260507060505 55 273 0.0 0.0 0.00 0.00 0.00 91 1019.1
20260507060006 55 273 0.0 0.0 0.00 0.00 0.00 91 1019.1
20260507055506 55 273 0.0 0.0 0.00 0.00 0.00 90 1019.1
20260507055005 55 273 0.0 0.0 0.00 0.00 0.00 90 1019.0
20260507054505 56 273 0.0 0.0 0.00 0.00 0.00 90 1019.1
20260507054005 56 273 0.0 0.0 0.00 0.00 0.00 90 1019.1
20260507053505 56 273 0.0 0.0 0.00 0.00 0.00 90 1019.1
20260507052005 56 273 0.0 0.0 0.00 0.00 0.00 88 1019.2
20260507051005 56 273 0.0 0.0 0.00 0.00 0.00 88 1019.3
20260507050006 57 273 0.0 0.0 0.00 0.00 0.00 87 1019.0
20260507045505 57 273 0.0 0.0 0.00 0.00 0.00 87 1019.0
20260507045005 57 273 0.0 0.0 0.00 0.00 0.00 87 1019.0
20260507044504 57 273 0.0 0.0 0.00 0.00 0.00 87 1018.9
20260507043505 57 273 0.0 0.0 0.00 0.00 0.00 86 1019.1
20260507042505 58 273 0.0 0.0 0.00 0.00 0.00 86 1018.9
20260507041505 58 273 0.0 0.0 0.00 0.00 0.00 85 1019.0
20260507040505 58 273 0.0 0.0 0.00 0.00 0.00 85 1019.0
20260507040005 58 273 0.0 0.0 0.00 0.00 0.00 85 1018.6
20260507035505 58 273 0.0 0.0 0.00 0.00 0.00 84 1018.6
20260507034505 59 273 0.0 2.0 0.00 0.00 0.00 84 1018.6
20260507034005 59 273 1.0 2.0 0.00 0.00 0.00 83 1018.6
20260507033505 59 273 0.0 2.0 0.00 0.00 0.00 83 1018.5
20260507033005 59 273 1.0 2.0 0.00 0.00 0.00 83 1018.5
20260507032505 59 273 1.0 3.0 0.00 0.00 0.00 83 1018.5
20260507032005 60 273 1.0 2.0 0.00 0.00 0.00 82 1018.5
20260507031005 60 273 0.0 1.0 0.00 0.00 0.00 82 1018.5
20260507030505 60 273 0.0 1.0 0.00 0.00 0.00 81 1018.4
20260507030005 61 273 1.0 2.0 0.00 0.00 0.00 81 1018.4
20260507024005 62 273 1.0 3.0 0.00 0.00 0.00 79 1018.1
20260507023505 62 273 0.0 2.0 0.00 0.00 0.00 79 1018.1
20260507023005 62 273 2.0 3.0 0.00 0.00 0.00 77 1018.1
20260507022504 63 273 1.0 3.0 0.00 0.00 0.00 78 1018.0
20260507022005 63 273 1.0 3.0 0.00 0.00 0.00 77 1017.9
20260507021506 63 273 2.0 6.0 0.00 0.00 0.00 76 1018.0
20260507021005 64 282 2.0 3.0 0.00 0.00 0.00 74 1018.0
20260507020005 65 266 3.0 7.0 0.00 0.00 0.00 74 1017.9
20260507015505 65 236 2.0 5.0 0.00 0.00 0.00 74 1017.8
20260507015005 66 274 2.0 3.0 0.00 0.00 0.00 73 1017.9
20260507014504 66 192 3.0 5.0 0.00 0.00 0.00 72 1017.9
20260507014004 66 302 2.0 5.0 0.00 0.00 0.00 73 1017.9
20260507013505 66 262 2.0 7.0 0.00 0.00 0.00 72 1017.8
20260507013005 67 281 2.0 8.0 0.00 0.00 0.00 72 1017.9
20260507012505 67 256 3.0 7.0 0.00 0.00 0.00 71 1018.0
20260507012005 67 296 2.0 3.0 0.00 0.00 0.00 70 1017.9
20260507011504 67 273 1.0 9.0 0.00 0.00 0.00 71 1018.1
20260507010005 68 281 2.0 5.0 0.00 0.00 0.00 69 1017.7
20260507005505 68 354 2.0 5.0 0.00 0.00 0.00 69 1017.6
20260507005005 68 225 2.0 6.0 0.00 0.00 0.00 70 1017.7
20260507004505 68 275 1.0 8.0 0.00 0.00 0.00 72 1017.7
20260507003505 68 253 3.0 6.0 0.00 0.00 0.00 69 1017.7
20260507003005 68 327 3.0 8.0 0.00 0.00 0.00 70 1017.8
20260507002505 69 271 2.0 7.0 0.00 0.00 0.00 68 1017.8
20260507002005 69 275 2.0 3.0 0.00 0.00 0.00 69 1017.8
20260507001505 69 242 2.0 3.0 0.00 0.00 0.00 70 1017.8
20260507001004 68 222 3.0 9.0 0.00 0.00 0.00 68 1017.9
20260507000505 68 271 3.0 7.0 0.00 0.00 0.00 69 1018.0
20260507000005 68 266 3.0 7.0 0.00 0.00 0.00 70 1017.8
20260506235505 68 218 2.0 7.0 0.00 0.00 0.00 68 1017.8
20260506235005 68 281 2.0 8.0 0.00 0.00 0.00 70 1017.7
20260506234504 68 229 3.0 8.0 0.00 0.00 0.00 70 1017.8
20260506234005 67 266 2.0 8.0 0.00 0.00 0.00 71 1017.9
20260506233505 67 280 4.0 9.0 0.00 0.00 0.00 70 1017.8
20260506233004 67 182 2.0 7.0 0.00 0.00 0.00 72 1017.9
20260506232505 67 192 5.0 10.0 0.00 0.00 0.00 71 1018.0
20260506232005 67 202 5.0 9.0 0.00 0.00 0.00 70 1018.0
20260506231504 67 204 3.0 8.0 0.00 0.00 0.00 71 1018.2
20260506231004 67 197 5.0 8.0 0.00 0.00 0.00 71 1018.2
20260506230505 67 179 5.0 8.0 0.00 0.00 0.00 71 1018.3
20260506230005 67 292 5.0 10.0 0.00 0.00 0.00 70 1018.2
20260506225505 67 178 5.0 10.0 0.00 0.00 0.00 70 1018.3
20260506225004 67 190 3.0 10.0 0.00 0.00 0.00 72 1018.3
20260506224504 67 212 3.0 9.0 0.00 0.00 0.00 73 1018.3
20260506224005 67 197 6.0 12.0 0.00 0.00 0.00 71 1018.2
20260506223505 67 178 5.0 8.0 0.00 0.00 0.00 71 1018.3
20260506222504 66 216 5.0 9.0 0.00 0.00 0.00 73 1018.2
20260506222005 66 240 6.0 9.0 0.00 0.00 0.00 71 1018.6
20260506221505 66 184 6.0 10.0 0.00 0.00 0.00 71 1018.6
20260506221005 66 185 6.0 12.0 0.00 0.00 0.00 73 1018.5
20260506220505 66 188 5.0 12.0 0.00 0.00 0.00 72 1018.6
20260506220005 66 187 5.0 8.0 0.00 0.00 0.00 72 1018.7
20260506215505 66 223 5.0 12.0 0.00 0.00 0.00 72 1018.8
20260506215006 66 255 5.0 9.0 0.00 0.00 0.00 72 1018.8
20260506214505 66 169 4.0 10.0 0.00 0.00 0.00 72 1018.7
20260506214005 66 268 3.0 10.0 0.00 0.00 0.00 73 1018.8
20260506213505 67 284 3.0 7.0 0.00 0.00 0.00 70 1018.8
20260506213004 67 230 2.0 7.0 0.00 0.00 0.00 71 1019.0
20260506212505 66 356 3.0 9.0 0.00 0.00 0.00 70 1019.1
20260506212005 67 266 5.0 8.0 0.00 0.00 0.00 69 1019.2
20260506211505 67 214 2.0 5.0 0.00 0.00 0.00 70 1019.3
20260506211005 66 340 2.0 5.0 0.00 0.00 0.00 73 1019.3
20260506210504 65 167 3.0 8.0 0.00 0.00 0.00 72 1019.4
20260506210004 65 218 3.0 10.0 0.00 0.00 0.00 73 1019.2
20260506205504 64 211 4.0 9.0 0.00 0.00 0.00 73 1019.1
20260506205004 64 225 4.0 8.0 0.00 0.00 0.00 72 1019.2
20260506204505 64 199 5.0 8.0 0.00 0.00 0.00 72 1019.2
20260506203505 65 304 2.0 7.0 0.00 0.00 0.00 72 1019.2
20260506203005 64 280 5.0 12.0 0.00 0.00 0.00 72 1019.3
20260506202505 64 201 4.0 9.0 0.00 0.00 0.00 72 1019.3
20260506202004 64 213 4.0 10.0 0.00 0.00 0.00 73 1019.5
20260506201504 64 229 5.0 10.0 0.00 0.00 0.00 70 1019.4
20260506201004 64 211 5.0 12.0 0.00 0.00 0.00 73 1019.4
20260506200505 64 211 5.0 8.0 0.00 0.00 0.00 71 1019.4
20260506200004 65 204 4.0 8.0 0.00 0.00 0.00 71 1019.4
20260506195505 64 286 2.0 5.0 0.00 0.00 0.00 71 1019.5
20260506195005 64 225 5.0 8.0 0.00 0.00 0.00 71 1019.5
20260506194505 64 148 5.0 10.0 0.00 0.00 0.00 73 1019.7
20260506194005 63 217 5.0 7.0 0.00 0.00 0.00 71 1019.7
20260506193504 64 213 6.0 8.0 0.00 0.00 0.00 68 1019.7
20260506193005 64 185 3.0 6.0 0.00 0.00 0.00 71 1019.6
20260506192011 63 162 3.0 7.0 0.00 0.00 0.00 70 1019.7
20260506191505 63 204 4.0 7.0 0.00 0.00 0.00 70 1019.6
20260506191005 62 192 2.0 6.0 0.00 0.00 0.00 72 1019.7
20260506190505 62 231 3.0 6.0 0.00 0.00 0.00 73 1019.7
20260506190006 62 213 5.0 7.0 0.00 0.00 0.00 71 1019.7